Miscellaneous Local Product
Issued by NWS Hastings, NE

Home | Current Version | Previous Version | Text Only | Print | Product List | Glossary Off
Versions: 1 2 3 4 5 6 7 8 9 10 11 12 13 14 15 16 17 18 19 20 21 22 23 24 25 26 27 28 29 30 31 32 33 34 35 36 37 38 39 40 41 42 43 44 45 46 47 48 49 50

000
AXUS43 KGID 281202
MISGRI

GID CWA HOURLY WEATHER ROUNDUP
NATIONAL WEATHER SERVICE HASTINGS NE
700 AM CDT FRI APR 28 2017

NOTE: "FAIR" INDICATES FEW OR NO CLOUDS BELOW 12,000 FEET WITH NO
SIGNIFICANT WEATHER AND/OR OBSTRUCTIONS TO VISIBILITY.

...SOUTH CENTRAL NEBRASKA...

CITY           SKY/WX    TMP DP  RH WIND       PRES   REMARKS
GRAND ISLAND   LGT RAIN  41  41 100 NE18      29.69S FOG
HASTINGS       LGT RAIN  45  43  93 E17G25    29.65S FOG
KEARNEY        CLOUDY    45  39  81 NE15      29.65S
ORD            RAIN      39  35  86 E16       29.73R WCI  30
YORK           CLOUDY    41  41 100 E17G26    29.70S FOG
AURORA         DRIZZLE   42  40  95 NE22      29.69S
LEXINGTON      LGT RAIN  42  40  91 NE10G16   29.64S
HOLDREGE       LGT RAIN  44  42  95 E16       29.62R
HEBRON         LGT RAIN  46  46  97 E8        29.64R

...NEBRASKA PANHANDLE...

CITY           SKY/WX    TMP DP  RH WIND       PRES   REMARKS
CHADRON        LGT RAIN  36  34  92 E15       29.71R WCI  27
ALLIANCE       LGT SNOW  33  32  96 E8        29.66R FOG     WCI  26
SCOTTSBLUFF    LGT SNOW  33  31  92 E10       29.65R FOG     WCI  25
SIDNEY         MIX PCPN  33  32  96 E8        29.63R WCI  26

...WESTERN AND NORTH CENTRAL NEBRASKA...

CITY           SKY/WX    TMP DP  RH WIND       PRES   REMARKS
VALENTINE      CLOUDY    39  28  64 E14       29.79R WCI  31
AINSWORTH      LGT SNOW  35  33  92 E12       29.79R WCI  27
ONEILL         CLOUDY    36  31  82 E12       29.81R WCI  27
BROKEN BOW     RAIN      39  50 100 E14       29.69R WCI  31
IMPERIAL       LGT RAIN  37  35  92 NE13      29.64R WCI  29
NORTH PLATTE   RAIN      39  38  96 E10       29.66F WCI  32
MCCOOK         LGT RAIN  43  43 100 NE14      29.59S FOG

...EASTERN NEBRASKA...

CITY           SKY/WX    TMP DP  RH WIND       PRES   REMARKS
NORFOLK        CLOUDY    35  28  75 E13G21    29.80R WCI  26
SO SIOUX CITY  CLOUDY    34  29  82 E6        29.85R WCI  29
TEKAMAH        LGT RAIN  38  30  73 NE9       29.84R WCI  31
COLUMBUS       CLOUDY    37  34  87 NE18      29.77R WCI  27
ALBION         LGT RAIN  37  34  87 E10       29.78R WCI  30
OMAHA EPPLEY   RAIN      39  33  79 NE10      29.80R WCI  32
OFFUTT AFB     RAIN      40  37  87 NE14      29.77S WCI  33
MILLARD        LGT RAIN  42  38  86 NE3       29.78F
LINCOLN        RAIN      43  40  89 NE17      29.73S FOG
NEBRASKA CITY  RAIN      42  40  95 NE16      29.73S
BEATRICE       LGT RAIN  46  45  94 E21G30    29.67S
FALLS CITY     RAIN      46  44  93 E17       29.67F FOG

...NORTHERN KANSAS...

CITY           SKY/WX    TMP DP  RH WIND       PRES   REMARKS
GOODLAND       CLOUDY    38  37  97 NW16      29.61S WCI  29
HILL CITY      CLOUDY    47  47 100 CALM      29.59S FOG
NORTON         CLOUDY    45  43  93 E9        29.58S
PHILLIPSBURG   RAIN      46  46 100 E8        29.60S
SMITH CENTER   CLOUDY    45  45 100 E15G24    29.60S
HAYS           CLOUDY    47  46  97 CALM      29.59S
RUSSELL        CLOUDY    48  47  96 VRB3      29.56F
CONCORDIA      LGT RAIN  47  47 100 E10       29.62R FOG
SALINA         CLOUDY    52  48  86 E7        29.59S
TOPEKA         CLOUDY    51  51 100 E8        29.63R



USA.gov is the U.S. government's official web portal to all federal, state and local government web resources and services.